Regional Weather Roundup
Issued by NWS

Current Version | Previous Version | Text Only | Print | Product List | Glossary On
Versions: 1 2 3 4 5 6 7 8 9 10 11 12 13 14 15 16 17 18 19 20 21 22 23 24 25 26 27 28 29 30 31 32 33 34 35 36 37 38 39 40 41 42 43 44 45 46 47 48 49 50
000
ASUS42 KTBW 200510
RWRFL
FLORIDA REGIONAL WEATHER ROUNDUP
NATIONAL WEATHER SERVICE TAMPA BAY RUSKIN FL
1200 AM EST SAT DEC 20 2014

NOTE: "FAIR" INDICATES FEW OR NO CLOUDS BELOW 12,000 FEET WITH NO
SIGNIFICANT WEATHER AND/OR OBSTRUCTIONS TO VISIBILITY.


FLZ001>010-012>015-112-114-115-200600-
PANHANDLE FLORIDA

CITY           SKY/WX    TMP DP  RH WIND       PRES   REMARKS
PENSACOLA      LGT RAIN  47  46  97 NE8       30.10F WCI  43
PENSACOLA NAS  CLOUDY    50  47  89 NE12      30.10F
MILTON NAS     CLOUDY    47  47 100 NE8       30.12S WCI  43
CRESTVIEW      LGT RAIN  48  47  96 NE5       30.15S FOG
DUKE FIELD     CLOUDY    48  47  95 NE6       30.13S
VALPARAISO     CLOUDY    49  47  94 NE9       30.12S
MARY ESTHER    LGT RAIN  49  45  86 NE8       30.10F
PANAMA CITY    CLOUDY    51  48  89 N6        30.11F
TYNDALL AFB    CLOUDY    51  48  92 NE6       30.12F
APALACHICOLA   MOCLDY    54  46  74 NE8       30.11F

STATION/POSITION SKY/WX   TEMP    WIND        PRES    WAVE   SWELL
                          AIR SEA DIR/SP/G            HT/PER HT/PER
                          (F)     (DEG/KT/KT) (MB)    (FT/S) (FT/S)
30.1N   87.6W              57 66   60/ 17/ 21 1017.8F   3/ 4
29.2N   88.2W              68 75  110/ 19/ 23 1016.5F   4/ 5
28.7N   86.0W              69 75  100/ 10/ 12 1018.5F   2/ 3   2/ 8
PANAMA CITY BEAC           51 62   40/  8/ 12 1019.3F
CAPE SAN BLAS    NOT AVBL
TOWER C                    57      30/ 17/ 18 1019.2F
28.5N   84.5W              68 71  120/ 10/ 12 1018.7R   2/ 3

$$
FLZ011-016>038-118-127-128-134-139-239-200600-
NORTH FLORIDA

CITY           SKY/WX    TMP DP  RH WIND       PRES   REMARKS
MARIANNA       RAIN      49  49 100 N7        30.15S
TALLAHASSEE    CLOUDY    52  48  86 N3        30.13S
PERRY          MOCLDY    53  49  89 N3        30.13S
CROSS CITY       N/A     49  44  83 N3        30.11R
LAKE CITY      MOCLDY    52  45  76 N3        30.12R
GAINESVILLE    MOCLDY    51  43  74 CALM      30.11F
MAYPORT NAS    CLOUDY    60  54  80 N5        30.11F
JACKSONVILLE   CLOUDY    52  51  97 CALM      30.11S
JAX NAS        CLOUDY    60  52  74 CALM      30.12S
JAX CRAIG      CLOUDY    55  52  89 CALM      30.12R
JAX CECIL      MOCLDY    50  46  87 CALM      30.11F
FERNANDINA BEA MOCLDY    59  54  82 CALM      30.11R
ST AUGUSTINE   CLOUDY    56  54  93 CALM      30.12S

STATION/POSITION SKY/WX   TEMP    WIND        PRES    WAVE   SWELL
                          AIR SEA DIR/SP/G            HT/PER HT/PER
                          (F)     (DEG/KT/KT) (MB)    (FT/S) (FT/S)
SHELL POINT                52     360/  7/ 10   N/A
KEATON BEACH               54      20/  6/  8 1020.0R
CEDAR KEY                  57      20/  5/  6 1019.2F
FERNANDINA                 58 59   40/  3/  5 1019.4S
30.7N   81.3W                 61                N/A     1/11
MAYPORT                    59 61   30/  3/  4   N/A
31.4N   80.9W              58 57   20/  4/  4 1020.8R   1/10   2/10
ST AUGUSTINE               60     330/  5/  5 1020.1R

$$
FLZ040-043>046-052-053-057-058-063-144-200600-
INTERIOR CENTRAL FLORIDA

CITY           SKY/WX    TMP DP  RH WIND       PRES   REMARKS
OCALA          CLOUDY    52  41  66 CALM      30.09F
THE VILLAGES     N/A     54  48  82 CALM      29.99F
LEESBURG       MOCLDY    56  51  84 E5        30.10F
SANFORD        PTCLDY    53  51  93 CALM      30.10F
ORLANDO EXEC   PTCLDY    58  52  80 CALM      30.10S
ORLANDO INTL   MOCLDY    58  53  84 CALM      30.10F
WINTER HAVEN   PTCLDY    58  49  72 E3        30.10F
LAKELAND       PTCLDY    55  46  71 CALM      30.09F
BARTOW         FAIR      52  46  82 CALM      30.10F
OKEECHOBEE     PTCLDY    54  54 100 CALM      30.09S

$$
FLZ041-047-054-059-064-141-147-200600-
EAST CENTRAL FLORIDA

CITY           SKY/WX    TMP DP  RH WIND       PRES   REMARKS
DAYTONA BEACH  PTCLDY    53  51  93 CALM      30.09F
DELAND         PTCLDY   N/A N/A N/A CALM      30.10F
JFK SPACE CTR  CLOUDY    53  51  94 CALM      30.09F
CAPE CANAVERAL PTCLDY    53  50  88 N1        30.08F
PATRICK AFB    PTCLDY    61  59  94 N2        30.08F
MELBOURNE      PTCLDY    55  53  93 NW3       30.09F
VERO BEACH     PTCLDY    56  54  93 W3        30.09F
FT PIERCE      MOCLDY    56  54  93 CALM      30.08F
STUART         PTCLDY    59  55  88 CALM      30.09F

STATION/POSITION SKY/WX   TEMP    WIND        PRES    WAVE   SWELL
                          AIR SEA DIR/SP/G            HT/PER HT/PER
                          (F)     (DEG/KT/KT) (MB)    (FT/S) (FT/S)
28.5N   80.2W              71 75  140/  6/  8 1019.4S
28.9N   78.5W              71 76  100/  4/  6 1019.6R   2/11   2/11
TRIDENT PIER               58 65   CALM  /  1 1018.6R
28.4N   80.5W                 66                N/A     1/11
27.6N   80.2W                 76                N/A     1/11

$$
FLZ050-056-061-142-242-148-248-149-249-151-251-155-255-
160-260-200600-
WEST CENTRAL FLORIDA

CITY           SKY/WX    TMP DP  RH WIND       PRES   REMARKS
CRYSTAL RIVER  FAIR      52  45  76 CALM      30.09S
INVERNESS      FAIR      50  45  81 CALM      30.09F
BROOKSVILLE    PTCLDY    50  45  83 CALM      30.09F
ZEPHYRHILLS    FAIR      48  45  87 CALM      30.10F
CLEARWATER     MOCLDY    60  49  66 E7        30.09S
TAMPA INTL     MOCLDY    62  45  53 E3        30.09F
TAMPA EXEC     MOCLDY    54  48  82 CALM      30.09F
PLANT CITY     PTCLDY    59  46  63 E3        30.10F
MACDILL AFB    MOCLDY    58  52  81 E6        30.09S
PETER O KNIGHT MOCLDY    61  50  67 E3        30.09F
ST PETERSBURG  MOCLDY    63  52  67 SE10      30.07F
SARASOTA       MOCLDY    54  49  83 E6        30.07S
VENICE         FAIR      55  52  88 E5        30.09S

STATION/POSITION SKY/WX   TEMP    WIND        PRES    WAVE   SWELL
                          AIR SEA DIR/SP/G            HT/PER HT/PER
                          (F)     (DEG/KT/KT) (MB)    (FT/S) (FT/S)
CEDAR KEY                  57      20/  5/  6 1019.2F
28.5N   84.5W              68 71  120/ 10/ 12 1018.7R   2/ 3
27.3N   84.3W                 76                N/A     2/ 3
CLEARWATER BEACH           63 64  110/  6/  7 1018.2S
MIDDLE TAMPA BAY           62     110/  9/ 10 1018.8F
VENICE                     59 65   80/  6/  6 1018.3F

$$
FLZ066-069-070-075>078-162-262-165-265-200600-
SOUTHWEST FLORIDA AND KEYS

CITY           SKY/WX    TMP DP  RH WIND       PRES   REMARKS
PUNTA GORDA    CLEAR     51  48  89 NE3       30.10S
FT MYERS       CLEAR     57  53  86 NE3       30.07S
SOUTHWEST INTL CLEAR     59  52  77 CALM      30.07F
MARCO ISLAND   CLOUDY    57  54  88 E3        30.06F
MARATHON       PTCLDY    70  61  73 E3        30.05F
KEY WEST NAS   PTCLDY    69  64  84 NE7       30.05F
KEY WEST INTL  PTCLDY    70  64  81 NE6       30.06F

STATION/POSITION SKY/WX   TEMP    WIND        PRES    WAVE   SWELL
                          AIR SEA DIR/SP/G            HT/PER HT/PER
                          (F)     (DEG/KT/KT) (MB)    (FT/S) (FT/S)
VENICE                     59 65   80/  6/  6 1018.3F
NAPLES                     63 72   90/  4/  5 1018.6F
26.0N   85.6W              72 76  120/ 10/ 12 1017.1F   3/ 8   2/ 8
DRY TORTUGAS               71     100/ 12/ 14 1017.5F
NW FL BAY                  69      80/  6/  7 1018.4F
SAND KEY                   74     120/ 14/ 16 1017.4F
SOMBRERO KEY               74     120/ 11/ 12 1018.3F
LONG KEY                   72 69  140/  8/  9 1018.4F
MOLASSES REEF              74 76  120/ 10/ 11 1017.7F

$$
FLZ067-068-071>074-168-172>174-200600-
SOUTHEAST FLORIDA

CITY           SKY/WX    TMP DP  RH WIND       PRES   REMARKS
W PALM BEACH   MOCLDY    71  61  70 SE8       30.06F
FT LAUDER-EXEC CLEAR     62  58  86 CALM      30.07S
FT LAUDERDALE  PTCLDY    68  59  73 SE6       30.07S
POMPANO BEACH  CLEAR     71  58  63 SE7       30.07S
PEMBROKE PINES CLEAR     62  58  86 CALM      30.08F
OPA LOCKA      CLEAR     62  58  86 E3        30.07F
MIAMI          PTCLDY    69  60  73 SE3       30.07F
WEST KENDALL   CLEAR     60  58  92 CALM      30.07F
HOMESTEAD      CLEAR     59  57  94 CALM      30.06F

STATION/POSITION SKY/WX   TEMP    WIND        PRES    WAVE   SWELL
                          AIR SEA DIR/SP/G            HT/PER HT/PER
                          (F)     (DEG/KT/KT) (MB)    (FT/S) (FT/S)
PORT EVERGLADES            73     130/  8/ 12 1018.1
VIRGINIA KEY               72 73  130/ 10/ 12 1018.5F
LAKE WORTH                 73 76  100/  8/ 12 1018.1R
SETTLEMENT POINT           70     100/  8/  9 1019.3F

$$




USA.gov is the U.S. government's official web portal to all federal, state and local government web resources and services.